Dewpoint
7 8 8 9 9 8 8 8 7 5 6 5 4 6 6 6 7 7 7 10 9 8 9 9 9 9 10 8 8 10 10 10 11 11 11 11 10 10 10 10 9 9 9
6 8 8 8 8 8 8 8 8 6 5 5 5 4 4 7 7 9 9 9 10 10 10 10 10 10 10 9 9 11 10 10 11 10 11 11 11 10 9 8 8 7 4
6 8 8 8 8 8 8 8 7 7 6 6 7 7 7 7 8 7 9 9 9 9 11 11 10 10 10 10 10 10 11 11 10 10 11 11 10 10 9 8 5 0 -4
6 7 8 7 7 7 7 7 7 7 7 7 7 7 7 7 7 8 8 8 8 9 12 11 11 11 11 11 10 10 11 11 11 10 10 10 10 9 8 8 7 2 -3
5 7 8 7 7 8 6 6 6 7 7 7 7 7 7 7 7 7 8 8 7 9 11 11 10 10 10 10 10 10 10 10 10 9 10 10 9 9 9 8 6 -5 -2
4 6 7 8 7 7 6 7 6 5 6 7 7 7 7 7 7 7 7 7 7 8 11 10 10 10 10 9 10 9 10 9 9 9 9 9 9 9 8 5 -3 -4 2
2 5 6 7 7 7 7 8 8 8 7 8 8 9 9 9 8 8 8 9 9 11 11 10 10 10 9 9 9 10 9 8 9 7 8 8 8 8 5 -5 -5 1 4
1 4 5 7 8 7 7 6 6 8 8 8 9 9 9 9 9 8 9 9 10 10 11 10 10 9 9 8 8 9 8 8 8 8 7 5 4 1 -2 2 5 6 7
1 2 4 6 7 7 7 7 6 5 7 8 8 8 9 9 9 9 9 10 10 10 10 10 10 10 9 8 9 10 9 7 6 6 5 5 5 5 5 5 5 6 8
0 0 1 6 7 7 6 8 7 6 4 6 8 9 10 9 9 9 9 9 9 9 10 10 9 8 9 9 7 7 7 7 7 7 7 9 7 6 7 7 6 4 3
1 -1 -0 4 7 6 5 4 7 6 3 3 8 8 9 9 8 9 9 9 9 8 7 8 9 9 8 6 6 7 7 6 7 6 7 7 -1 -1 -0 0 1 2 2
2 -1 -1 1 8 6 7 5 6 6 5 0 4 7 8 8 8 8 9 9 8 8 8 7 7 7 7 6 6 5 4 4 3 1 0 -1 -0 2 3 3 3 4 5
3 -0 -1 -0 4 8 8 8 7 7 7 3 -0 3 2 7 7 9 9 8 7 8 8 8 8 8 7 6 4 4 3 3 1 2 -2 0 2 3 4 5 6 6 6
3 2 -2 -1 3 7 8 9 8 8 8 7 2 1 3 3 4 2 4 3 3 2 3 6 2 3 2 3 2 1 1 2 -0 -1 -1 -2 -2 0 4 6 6 6 7
2 2 -1 -1 -1 1 5 7 8 8 7 7 5 2 1 3 3 4 4 3 3 4 3 2 2 2 -2 -2 0 0 -0 0 -1 1 1 1 -1 3 6 7 7 6 2
1 2 1 -1 -1 -1 2 5 7 6 6 6 5 2 2 0 0 3 4 5 5 5 4 4 4 1 -3 -3 -1 -0 -0 -0 1 3 1 -4 -2 3 6 6 5 2 -2
-0 1 2 -1 0 -0 -1 1 4 5 5 5 6 5 4 3 6 6 2 5 6 4 4 3 1 0 -1 -3 -2 -2 -2 -1 1 1 -2 -5 1 5 6 6 3 -1 -9
-0 -1 1 1 -1 0 0 -2 -1 1 3 3 3 5 3 4 6 7 7 5 2 -0 1 1 0 -3 -4 -4 -4 -5 -2 0 0 1 -1 -3 1 5 5 4 1 -6 -11
1 -0 -1 1 -1 -1 -0 -0 -2 -2 -1 0 1 2 3 1 5 6 5 6 3 -1 -4 -3 -1 -2 -3 -4 -4 -5 -4 -2 -0 1 -1 -3 2 5 5 2 -4 -10 -12
2 1 -0 -1 1 -1 -1 -1 -1 -2 -2 -1 -0 -0 0 -1 -3 1 2 3 4 0 -5 -7 -7 -4 -3 -3 -3 -5 -5 -7 -6 -4 -5 -3 3 6 4 1 -8 -8 -7
2 2 1 0 -0 0 -2 -1 -1 -0 -1 -2 -1 -1 -1 -4 -7 -6 -2 -1 -2 -2 -3 -5 -11 -13 -8 -4 -3 -1 -1 -1 -3 -5 -6 -2 4 5 1 -4 -6 -10 -8
2 2 2 1 1 1 1 -1 -1 -0 0 -1 -1 -1 -0 0 -3 -5 -4 -2 -2 -2 -1 -1 -1 -1 -3 -9 -10 -5 -1 0 0 0 -1 1 5 2 0 -3 -5 -4 -0
3 2 2 2 2 1 1 2 2 0 0 0 0 -1 -0 0 1 -1 -3 -2 -2 -1 0 0 0 0 1 1 1 -7 -11 -6 -5 1 2 3 4 4 1 -2 -1 0 -1
4 3 2 3 3 3 3 2 2 2 2 2 2 1 1 1 2 3 2 -1 -2 -1 -0 0 0 0 -0 -0 -0 2 0 -7 -5 -1 2 3 4 2 3 -1 1 1 -4
5 4 4 4 4 4 4 5 4 4 4 3 3 4 3 1 3 3 3 3 3 3 2 2 2 2 2 1 0 0 1 -0 -3 -0 3 3 3 3 1 1 1 -2 -7
7 5 5 4 5 5 6 6 6 6 6 6 6 6 5 5 4 3 4 4 4 4 4 4 4 4 4 3 2 1 1 1 -1 -2 2 4 5 2 0 1 0 -4 -10
Wind_Speed
8 7 3 1 5 4 4 2 3 6 10 9 7 6 3 4 4 5 6 6 6 6 6 7 8 10 17 18 13 17 23 19 22 23 26 25 32 29 28 23 16 14 12
8 6 5 1 3 3 3 3 3 8 9 8 5 6 7 6 7 9 9 9 7 5 6 9 8 9 15 17 13 22 20 17 21 25 26 27 29 32 26 22 14 14 13
8 8 4 1 1 3 3 6 6 7 9 9 7 8 11 10 12 11 10 10 10 10 10 11 11 12 16 15 15 16 17 17 17 25 26 30 34 28 24 17 13 13 12
10 9 6 4 3 4 9 9 9 10 12 11 11 12 11 11 9 11 10 9 9 11 11 12 14 10 10 13 14 15 17 20 26 26 25 35 30 23 20 18 13 11 10
11 10 7 8 5 7 13 13 14 14 12 12 13 13 11 10 10 9 11 9 9 11 12 15 15 10 11 14 20 20 19 19 25 23 26 25 24 25 19 14 13 13 11
13 11 9 9 7 10 14 14 13 12 12 11 10 10 10 10 9 8 5 2 5 8 13 17 15 17 17 14 14 14 15 26 25 23 21 20 20 19 15 13 16 15 12
14 13 13 13 11 11 14 14 12 10 11 11 9 8 9 10 11 11 6 6 8 12 17 20 22 17 20 19 20 24 23 17 21 21 14 13 13 14 14 15 16 16 15
16 15 16 16 12 11 12 12 12 10 11 10 8 9 10 13 13 12 11 13 11 14 19 23 21 24 20 21 23 21 19 19 16 10 11 12 14 16 15 16 17 15 11
19 17 17 17 13 14 10 10 9 8 10 9 7 8 10 15 15 11 12 12 15 18 20 18 19 20 20 20 16 14 14 14 15 15 15 15 17 19 16 14 12 10 10
22 20 17 19 16 14 11 10 8 6 8 8 8 8 9 15 16 14 13 15 17 18 21 22 23 20 21 17 15 15 15 14 13 16 16 14 13 14 12 11 9 8 7
22 20 19 21 18 15 13 11 10 6 7 8 10 11 13 14 16 15 15 14 18 20 23 22 21 22 20 23 14 15 15 13 14 16 16 13 11 11 11 11 10 7 4
23 22 20 22 20 19 14 15 11 7 7 10 10 12 12 14 13 14 15 12 12 16 19 18 21 19 16 16 16 13 10 7 5 7 8 9 9 9 9 8 6 5 4
24 24 23 21 22 21 18 16 14 12 8 11 13 13 13 13 12 12 12 12 12 12 14 15 16 16 16 18 17 13 9 7 6 7 7 7 8 8 9 8 7 7 6
26 26 24 23 24 23 21 18 17 15 12 10 13 16 16 15 14 14 15 15 14 13 13 16 16 17 17 17 17 15 13 12 9 10 10 10 11 12 11 10 10 8 6
29 28 27 25 23 24 23 22 21 17 14 11 11 14 19 19 18 16 16 16 15 15 15 16 19 20 20 19 19 17 16 15 14 14 12 12 11 13 15 14 12 8 5
31 31 30 28 28 26 25 25 23 20 17 14 11 8 16 13 15 17 16 14 14 15 18 19 20 21 22 22 21 20 20 19 18 15 14 14 14 15 17 16 12 9 8
33 33 33 31 30 31 29 27 28 24 22 20 17 13 14 15 16 15 17 20 19 19 20 20 21 22 23 24 24 24 24 22 20 18 17 17 16 18 19 18 16 14 15
34 32 33 34 33 31 32 30 27 27 27 24 21 20 18 20 20 18 21 21 26 29 27 24 23 23 24 26 27 27 26 25 24 22 21 20 20 22 22 21 20 19 18
37 36 34 35 34 32 29 30 29 26 26 26 24 23 22 23 24 25 26 27 27 30 30 29 27 25 25 25 27 28 29 29 27 26 25 25 24 25 26 24 22 21 18
38 37 37 35 36 34 34 31 31 30 26 24 23 22 22 25 29 31 32 31 31 29 29 31 30 29 28 27 27 28 29 30 30 29 28 27 27 29 29 27 28 25 19
39 39 39 39 37 37 36 36 34 34 33 29 25 20 20 23 24 30 31 31 30 29 28 27 28 31 32 32 31 31 31 31 31 30 29 28 30 31 29 29 24 21 14
37 37 38 41 42 40 39 36 34 32 33 34 30 27 24 24 24 27 30 31 30 29 28 27 27 27 28 30 33 33 32 33 34 33 31 29 30 31 29 29 25 19 16
39 36 37 38 39 42 42 41 38 33 31 30 30 32 29 28 25 26 29 30 31 31 30 29 29 28 29 29 30 31 34 33 37 37 33 34 32 37 33 29 22 20 23
34 40 36 37 37 38 37 39 39 38 35 31 31 33 30 28 24 23 23 24 25 26 27 28 29 29 29 30 31 35 35 37 38 40 37 36 40 39 35 33 26 24 23
31 38 37 35 36 33 32 30 31 32 33 31 28 27 30 33 28 26 25 24 24 27 27 28 30 31 32 32 32 34 36 37 36 36 37 40 38 39 38 36 29 29 25
32 38 42 30 28 30 25 22 23 24 28 27 27 30 31 31 32 31 24 23 25 26 27 27 28 30 29 29 29 28 31 33 33 32 34 35 37 41 37 29 31 30 24
Wind_Direction
172 175 179 18 14 23 32 71 100 149 162 163 169 183 167 133 121 112 116 102 125 144 153 150 143 170 187 180 164 171 179 177 156 164 151 156 162 149 147 138 142 139 131
172 177 168 190 5 14 25 121 106 157 161 165 171 164 143 123 107 99 94 91 94 109 146 159 160 165 181 175 175 172 171 170 165 156 160 161 165 148 140 130 122 133 128
180 182 179 161 43 21 72 127 123 134 150 152 140 136 131 117 107 98 97 102 99 93 103 118 130 151 171 188 179 175 171 174 164 152 153 151 159 152 152 149 137 131 126
176 174 165 116 85 54 115 124 130 129 132 132 129 133 135 128 110 104 104 105 97 95 102 112 115 134 143 163 165 155 161 156 150 134 131 145 155 150 154 155 152 139 137
179 178 159 138 91 90 117 120 122 124 126 128 125 130 132 133 135 117 114 107 93 96 110 118 117 124 122 142 158 148 148 152 152 145 144 149 152 166 166 161 159 149 144
183 180 163 148 108 109 119 115 120 123 125 128 126 122 130 136 142 147 147 107 136 125 131 134 135 130 127 126 143 159 148 150 155 156 155 157 161 166 163 159 159 156 138
189 181 169 159 127 119 122 112 114 130 138 133 130 130 143 137 140 136 117 128 132 136 141 139 139 137 136 135 127 129 138 142 138 133 142 158 169 168 160 157 156 142 142
191 184 177 169 160 135 131 117 101 120 140 142 131 127 144 150 146 133 126 124 119 132 141 145 142 142 144 139 129 130 132 144 156 162 126 134 150 158 145 138 144 150 147
195 188 185 182 181 177 165 144 113 97 135 141 139 125 140 145 140 139 139 128 125 132 147 145 155 158 153 150 140 136 142 147 143 135 128 131 136 144 150 157 166 165 164
198 190 186 186 183 180 173 174 155 102 132 136 140 134 131 151 142 139 141 139 137 136 139 139 140 143 147 151 134 136 142 142 147 150 146 138 150 160 161 171 180 178 177
196 191 191 191 188 185 182 180 171 151 141 137 136 139 137 138 136 137 149 146 147 142 143 146 144 145 143 147 137 133 134 126 127 145 148 142 144 151 157 160 158 166 200
197 197 197 196 193 193 190 183 180 181 157 162 151 144 149 150 146 141 136 139 138 152 158 153 150 154 158 160 151 144 143 147 145 148 158 156 152 157 162 168 180 201 225
198 199 200 199 202 200 199 198 193 192 187 179 179 169 159 162 163 163 158 155 151 157 165 166 173 177 177 178 176 179 185 189 204 197 188 186 190 210 222 227 210 209 243
200 201 197 205 206 206 208 210 207 205 202 200 194 193 188 182 177 173 168 164 163 165 170 177 177 180 181 186 194 201 205 210 221 212 205 211 222 221 213 213 221 229 258
201 204 203 205 208 207 211 212 215 219 222 218 220 209 204 203 198 191 189 187 183 184 188 192 197 199 201 201 202 207 211 216 219 217 225 236 230 219 212 219 226 233 242
201 205 206 206 210 210 211 217 220 221 221 229 241 245 224 218 212 212 208 207 210 209 208 211 210 212 213 212 213 216 219 220 221 228 239 245 242 228 223 218 218 223 225
207 205 206 207 210 216 216 218 223 226 227 232 235 233 235 231 219 216 223 226 226 227 229 229 227 225 223 222 223 225 225 225 230 239 248 249 241 229 225 219 210 211 195
212 211 208 209 209 216 220 221 224 229 231 231 228 229 228 221 222 222 226 227 230 230 232 232 230 228 229 228 227 226 226 229 235 243 248 248 243 232 222 216 212 205 198
213 214 212 213 213 214 220 225 226 227 229 231 233 232 230 226 222 222 221 229 234 232 231 233 232 233 234 234 232 232 233 237 242 246 249 246 238 228 218 216 204 196 195
216 219 216 215 216 217 219 222 227 228 228 229 232 235 235 233 227 224 224 226 230 233 233 236 237 238 238 238 238 241 243 243 245 247 248 244 233 225 221 216 202 200 202
217 221 221 221 221 220 224 227 230 233 233 231 230 232 238 242 240 234 232 232 234 238 239 239 238 238 240 243 243 242 244 249 252 252 249 243 228 220 219 209 200 190 197
218 222 224 225 226 226 227 229 231 235 237 238 239 239 238 241 241 238 238 239 240 244 247 250 252 251 250 249 249 250 251 253 250 248 242 231 220 217 214 204 194 199 221
222 221 224 227 231 231 232 233 234 237 238 240 243 243 241 244 245 244 242 242 244 246 248 251 253 255 257 254 252 249 248 253 257 252 244 225 222 216 206 207 203 206 211
229 229 223 227 231 235 235 237 237 238 239 242 245 243 241 242 247 248 249 249 250 253 254 255 256 257 257 258 257 255 253 250 251 247 239 225 215 205 209 197 211 198 214
225 231 227 224 228 232 237 239 238 238 238 239 241 244 247 244 245 251 251 254 257 257 258 262 264 264 265 264 261 260 257 252 248 241 230 218 209 210 199 192 195 189 212
236 230 232 215 217 224 224 223 228 228 235 234 242 250 254 252 248 248 255 260 261 263 266 265 265 267 267 263 259 261 263 255 247 237 221 207 217 204 196 193 187 205 209
Height
1452 1454 1455 1456 1456 1455 1453 1453 1454 1455 1456 1458 1460 1462 1463 1464 1465 1466 1467 1466 1467 1469 1471 1473 1475 1476 1479 1483 1488 1492 1496 1501 1506 1512 1517 1523 1529 1536 1543 1548 1554 1557 1559
1451 1453 1455 1456 1456 1455 1453 1454 1454 1455 1457 1459 1461 1462 1464 1465 1466 1467 1468 1468 1469 1469 1471 1473 1476 1478 1482 1485 1490 1495 1500 1504 1508 1514 1521 1527 1532 1540 1545 1550 1554 1559 1561
1451 1453 1455 1456 1456 1455 1453 1454 1455 1457 1458 1460 1462 1464 1466 1467 1468 1469 1470 1471 1472 1473 1474 1475 1477 1480 1484 1488 1493 1496 1500 1507 1512 1516 1520 1524 1532 1540 1546 1551 1555 1559 1562
1450 1453 1455 1456 1456 1455 1454 1455 1457 1458 1460 1462 1464 1466 1468 1469 1470 1472 1473 1474 1475 1476 1477 1479 1481 1485 1488 1490 1494 1498 1503 1508 1514 1520 1524 1527 1537 1542 1549 1552 1556 1560 1564
1450 1453 1455 1457 1457 1456 1456 1457 1459 1460 1462 1464 1466 1468 1470 1471 1473 1475 1476 1477 1478 1479 1481 1483 1487 1489 1492 1495 1498 1503 1507 1512 1517 1522 1527 1533 1538 1545 1549 1553 1557 1561 1563
1450 1453 1456 1458 1459 1459 1459 1460 1461 1463 1464 1466 1468 1470 1471 1473 1475 1476 1478 1479 1481 1482 1484 1487 1490 1494 1497 1501 1504 1508 1511 1515 1518 1523 1529 1534 1540 1545 1549 1552 1557 1560 1563
1449 1453 1456 1458 1461 1462 1463 1463 1464 1465 1466 1468 1470 1471 1473 1474 1476 1478 1479 1480 1481 1483 1487 1490 1494 1498 1502 1505 1509 1512 1516 1520 1524 1529 1533 1536 1540 1544 1548 1552 1557 1559 1562
1448 1452 1455 1458 1461 1464 1466 1466 1467 1467 1468 1470 1471 1472 1474 1475 1477 1479 1481 1482 1484 1486 1490 1494 1497 1502 1507 1510 1513 1516 1520 1524 1528 1531 1534 1538 1541 1545 1549 1553 1555 1557 1558
1447 1451 1455 1458 1461 1464 1466 1468 1469 1470 1471 1472 1473 1474 1475 1477 1479 1481 1483 1485 1487 1490 1494 1497 1502 1505 1510 1514 1518 1521 1524 1527 1530 1533 1536 1540 1543 1547 1550 1552 1554 1555 1558
1445 1449 1453 1457 1461 1464 1467 1469 1471 1472 1473 1474 1475 1477 1478 1480 1481 1484 1486 1488 1490 1493 1496 1500 1505 1509 1513 1517 1520 1524 1527 1529 1532 1535 1538 1541 1543 1546 1549 1551 1553 1554 1556
1444 1448 1452 1456 1460 1463 1466 1469 1472 1473 1474 1475 1477 1479 1481 1483 1485 1487 1489 1492 1494 1496 1500 1503 1507 1512 1516 1519 1522 1526 1529 1531 1534 1536 1538 1541 1543 1546 1548 1551 1552 1554 1556
1443 1447 1451 1455 1459 1463 1466 1469 1472 1474 1476 1477 1479 1481 1483 1485 1488 1490 1493 1496 1498 1500 1503 1507 1510 1514 1518 1522 1525 1527 1530 1533 1535 1537 1539 1541 1543 1545 1547 1549 1551 1552 1554
1441 1445 1449 1453 1458 1462 1465 1468 1471 1473 1476 1478 1480 1482 1485 1487 1490 1492 1495 1497 1500 1503 1506 1509 1512 1516 1519 1521 1524 1527 1529 1532 1534 1536 1539 1541 1543 1544 1546 1548 1549 1551 1553
1439 1443 1447 1451 1455 1460 1464 1467 1470 1472 1475 1477 1480 1482 1485 1488 1490 1493 1495 1498 1500 1503 1506 1509 1512 1515 1518 1521 1524 1526 1529 1531 1534 1536 1538 1540 1541 1543 1544 1546 1547 1549 1551
1436 1441 1445 1449 1453 1457 1461 1465 1468 1472 1474 1476 1479 1481 1483 1486 1489 1493 1496 1498 1501 1503 1506 1509 1511 1514 1517 1520 1522 1525 1528 1530 1532 1535 1536 1538 1539 1540 1542 1544 1545 1547 1548
1431 1436 1441 1446 1450 1454 1458 1462 1465 1469 1473 1475 1478 1479 1482 1485 1489 1492 1495 1498 1501 1503 1505 1507 1510 1513 1515 1518 1521 1523 1526 1528 1531 1532 1534 1535 1536 1538 1539 1541 1543 1544 1545
1424 1430 1436 1441 1445 1449 1453 1457 1461 1465 1469 1472 1475 1478 1480 1484 1486 1489 1493 1496 1499 1501 1502 1506 1508 1510 1513 1515 1518 1521 1523 1526 1529 1530 1531 1533 1534 1535 1536 1539 1541 1542 1543
1419 1425 1431 1436 1440 1444 1448 1452 1457 1460 1463 1467 1470 1474 1477 1480 1483 1486 1488 1490 1492 1494 1497 1501 1503 1506 1509 1512 1515 1517 1520 1522 1524 1526 1527 1529 1530 1531 1533 1535 1537 1539 1543
1412 1418 1424 1429 1435 1440 1444 1448 1451 1455 1458 1461 1465 1469 1471 1474 1477 1480 1482 1483 1486 1488 1492 1495 1498 1501 1504 1507 1510 1513 1515 1517 1519 1521 1522 1524 1525 1528 1530 1532 1534 1536 1537
1406 1411 1417 1423 1429 1434 1438 1442 1445 1449 1452 1455 1458 1461 1464 1467 1469 1472 1474 1476 1479 1481 1485 1489 1492 1496 1499 1501 1504 1507 1510 1512 1513 1515 1516 1518 1520 1522 1526 1528 1529 1531 1534
1398 1404 1411 1417 1421 1426 1431 1434 1439 1443 1446 1449 1452 1455 1458 1460 1462 1465 1468 1470 1473 1476 1479 1482 1485 1488 1491 1494 1497 1499 1501 1504 1506 1508 1511 1514 1516 1519 1523 1525 1530 1531 1532
1391 1397 1403 1408 1413 1418 1422 1426 1431 1434 1438 1442 1446 1449 1452 1453 1456 1458 1461 1463 1466 1469 1473 1476 1478 1481 1483 1486 1489 1492 1495 1496 1498 1500 1501 1504 1509 1517 1521 1526 1522 1530 1534
1386 1390 1396 1401 1405 1409 1415 1420 1424 1428 1431 1435 1438 1441 1444 1446 1448 1451 1453 1456 1459 1462 1465 1468 1470 1472 1474 1476 1479 1481 1484 1485 1488 1490 1492 1494 1496 1504 1510 1522 1526 1523 1530
1379 1385 1387 1393 1397 1402 1406 1410 1415 1420 1423 1427 1431 1434 1437 1439 1441 1443 1446 1449 1452 1455 1457 1459 1461 1463 1464 1465 1468 1470 1472 1475 1478 1479 1482 1484 1487 1494 1497 1508 1519 1522 1526
1373 1379 1382 1385 1390 1395 1400 1404 1408 1412 1415 1418 1421 1425 1428 1431 1433 1436 1439 1442 1444 1446 1448 1450 1452 1453 1454 1456 1458 1459 1461 1463 1466 1471 1475 1481 1485 1489 1493 1497 1507 1515 1519
1368 1371 1376 1379 1384 1389 1394 1397 1400 1404 1410 1411 1414 1417 1420 1423 1426 1429 1432 1434 1436 1438 1440 1440 1441 1443 1444 1445 1446 1448 1450 1452 1457 1463 1468 1472 1478 1484 1490 1497 1504 1509 1514